Regional Weather Roundup
Issued by NWS Boston, MA

Current Version | Previous Version | Text Only | Print | Product List | Glossary On
Versions: 1 2 3 4 5 6 7 8 9 10 11 12 13 14 15 16 17 18 19 20 21 22 23 24 25 26 27
000
ASUS41 KBOX 301210
RWRBOX

REGIONAL WEATHER ROUNDUP
NATIONAL WEATHER SERVICE BOSTON/NORTON MA
800 AM EDT FRI SEP 30 2022

NOTE:  "FAIR" INDICATES FEW OR NO CLOUDS BELOW 12,000 FEET WITH NO
SIGNIFICANT WEATHER AND/OR OBSTRUCTIONS TO VISIBILITY.

MAZALL-301300-
EASTERN MASSACHUSETTS

CITY           SKY/WX    TMP DP  RH WIND       PRES   REMARKS
BOSTON         PTSUNNY   50  43  77 N9        30.38S
6HR MIN TEMP:  48; 6HR MAX TEMP:  51;

BEVERLY        PTSUNNY   45  41  86 N8        30.38R
LAWRENCE       PTSUNNY   46  39  76 N6        30.41R
BEDFORD        PTSUNNY   46  41  82 N3        30.38R
NORWOOD        PTSUNNY   48  45  89 CALM      30.38S
MARSHFIELD     PTSUNNY   57  48  72 NE9       30.35S
PLYMOUTH       PTSUNNY   51  48  89 CALM      30.35R
TAUNTON          N/A    N/A N/A N/A MISG      30.36R
NEW BEDFORD    PTSUNNY   48  47  96 CALM      30.34S
$$

MAZALL-301300-
CAPE COD AND THE ISLANDS

CITY           SKY/WX    TMP DP  RH WIND       PRES   REMARKS
FALMOUTH       MOSUNNY   54  50  87 NE5       30.34R
HYANNIS        PTSUNNY   56  51  84 NE5       30.33R
CHATHAM        PTSUNNY   59  48  67 NE6       30.35R
PROVINCETOWN   PTSUNNY   57  49  74 NE9       30.36R
NANTUCKET      PTSUNNY   60  52  74 NE12      30.32R
MARTHAS VNYRD  PTSUNNY   58  51  78 NE8       30.33R
$$

MAZALL-301300-
CENTRAL AND WESTERN MASSACHUSETTS

CITY           SKY/WX    TMP DP  RH WIND       PRES   REMARKS
WORCESTER      PTSUNNY   46  38  73 N8        30.37R
6HR MIN TEMP:  44; 6HR MAX TEMP:  47;

FITCHBURG      PTSUNNY   46  39  76 NW3       30.40R
ORANGE         PTSUNNY   40  38  93 CALM      30.40S
SPRINGFIELD    PTSUNNY   41  41  99 NE5       30.37S
WESTFIELD      PTSUNNY   43  39  86 N5        30.39S
NORTH ADAMS    CLOUDY    37  37 100 E3        30.40F
PITTSFIELD     PTSUNNY   37  36  96 CALM      30.37S
$$

RIZALL-301300-
RHODE ISLAND

CITY           SKY/WX    TMP DP  RH WIND       PRES   REMARKS
PROVIDENCE     PTSUNNY   48  43  82 N7        30.37R
6HR MIN TEMP:  46; 6HR MAX TEMP:  50;

NEWPORT        PTSUNNY   49  47  93 N7        30.34S
BLOCK ISLAND   MOSUNNY   54  50  86 NE9G16    30.34S
SMITHFIELD     PTSUNNY   46  43  89 N8        30.37R
WESTERLY       MOSUNNY   48  45  89 N3        30.34S
$$

CTZALL-301300-
CONNECTICUT

CITY           SKY/WX    TMP DP  RH WIND       PRES   REMARKS
BRADLEY INTL   PTSUNNY   44  39  82 N6        30.39R
6HR MIN TEMP:  42; 6HR MAX TEMP:  47;

HARTFORD       PTSUNNY   46  41  82 N5        30.39R
BRIDGEPORT     MOSUNNY   49  41  74 N10       30.36R
DANBURY        MOSUNNY   49  39  68 E3        30.38R
GROTON         MOSUNNY   49  43  80 N10       30.35R
NEW HAVEN      MOSUNNY   50  42  74 N13       30.36S
CHESTER        FAIR      46  43  87 VRB6      30.36S
MERIDEN        PTSUNNY   47  39  74 NE9       30.38S
WILLIMANTIC    PTSUNNY   44  42  93 N5        30.37S
OXFORD         PTSUNNY   45  40  82 NE10      30.36S
$$

MEZ002-015-021-024-NHZ003-005-008-011-012-014-VTZ005-008-301300-
NORTHERN NEW ENGLAND

CITY           SKY/WX    TMP DP  RH WIND       PRES   REMARKS
PORTLAND ME    MOSUNNY   42  40  92 W5        30.40S
6HR MIN TEMP:  36; 6HR MAX TEMP:  44;

BANGOR ME      MOSUNNY   43  39  86 CALM      30.39R
CONCORD NH     MOSUNNY   36  35  96 CALM      30.41S
MANCHESTER NH  PTSUNNY   44  39  82 NW6       30.39S
NASHUA NH      PTSUNNY   42  42 100 NW5       30.41S
PORTSMOUTH NH  PTSUNNY   44  40  86 NW3       30.39S
JAFFREY NH     MOSUNNY   37  34  89 CALM      30.39S
KEENE NH       CLOUDY    35  35 100 CALM        N/A
BURLINGTON VT  MOSUNNY   41  38  89 CALM      30.41S
MT. WASHINGTON NOT AVBL
$$

NYZ052-076-301300-
EASTERN NEW YORK

CITY           SKY/WX    TMP DP  RH WIND       PRES   REMARKS
ALBANY         PTSUNNY   43  41  93 CALM      30.41R
6HR MIN TEMP:  39; 6HR MAX TEMP:  45;

NEW YORK CITY  PTSUNNY   53  39  59 NE13      30.34S
6HR MIN TEMP:  53; 6HR MAX TEMP:  57;

$$

ANZALL-301300-
MARINE OBSERVATIONS

STATION/POSITION TIME  TEMP    WIND        PRES    VSBY  WAVE
                       AIR SEA DIR/SP/G                  HT/PER
                 (UTC) (F)     (DEG/KT/KT) (MB)    (MI)  (FT/S)
BOSTON BUOY      1150      60   40/ 12/ 14 1028.9R         3/ 5
BUZZARDS BAY     1100   54      30/ 13/ 13 1027.4S
NANTUCKET SOUND  1150   61 66   70/ 14/ 17 1026.8R         1/ 3
MASS BAY-STELLWA 1004   56 60   50/ 12/ 16 1027.7R  1 7/8  4/ 5
ISLE OF SHOALS   1100   50      20/ 11/ 12 1028.3R
S OF BLOCK IS    1156      65                N/A           3/ 5
$$

......................KEY.........................
  SKY/WX - SKY CONDITION/PRESENT WEATHER
  TMP    - TEMPERATURE IN FAHRENHEIT
  DWPT   - DEWPOINT IN FAHRENHEIT
  RH     - RELATIVE HUMIDITY IN PERCENT
  WIND   - DIRECTION AND SPEED IN MPH
  PRES   - MEAN SEA LEVEL PRESSURE IN INCHES OF HG
  WCI    - WIND CHILL INDEX
  VSB    - VISIBILITY IN MILES
  HX     - HEAT INDEX
  TC     - TEMPERATURE IN CELSIUS
  VRB    - VARIABLE WIND DIRECTION
  N/A    - NOT AVAILABLE



USA.gov is the U.S. government's official web portal to all federal, state and local government web resources and services.